Tracking 19709 objects as of 18-Jun-2019
HD Live streaming from Space Station
objects crossing your sky now

SL-14 R/B

Track SL-14 R/B now!
10-day predictions


NORAD ID: 15475
Int'l Code: 1985-003G
Perigee: 1,420.7 km
Apogee: 1,479.6 km
Inclination: 82.6 °
Period: 114.7 minutes
Semi major axis: 7821 km
RCS: 6.3339 m2 (large)
Launch date: January 15, 1985
Source: Commonwealth of Independent States (former USSR) (CIS)
Launch site: PLESETSK MISSILE AND SPACE COMPLEX (PKMTR)

Note: This is a ROCKET BODY
aabbcc
Your satellite tracking list
Your tracking list is empty




NASA's NSSDC Master Catalog

Two Line Element Set (TLE):
1 15475U 85003G   19168.79095583 +.00000004 +00000-0 -41409-4 0  9996
2 15475 082.6118 043.9042 0037678 159.4535 268.8767 12.55156867576801
Source of the keplerian elements: AFSPC